TimeMST,TemperatureF,Dew PointF,Humidity,Sea Level PressureIn,VisibilityMPH,Wind Direction,Wind SpeedMPH,Gust SpeedMPH,PrecipitationIn,Events,Conditions,WindDirDegrees,DateUTC
12:52 AM,30.0,19.0,64,29.66,10.0,NNW,9.2,-,N/A,,Clear,330,2011-11-18 07:52:00
1:52 AM,30.2,19.4,64,29.60,10.0,NW,9.2,-,N/A,,Clear,310,2011-11-18 08:52:00
2:52 AM,26.6,19.4,74,29.60,10.0,NW,6.9,-,N/A,,Clear,320,2011-11-18 09:52:00
3:52 AM,32.0,21.0,64,29.64,10.0,NNW,12.7,-,N/A,,Clear,340,2011-11-18 10:52:00
4:52 AM,30.9,21.0,67,29.64,10.0,NNW,10.4,-,N/A,,Mostly Cloudy,340,2011-11-18 11:52:00
5:52 AM,35.1,21.9,59,29.63,10.0,NNW,12.7,-,N/A,,Mostly Cloudy,340,2011-11-18 12:52:00
6:52 AM,35.1,24.1,64,29.65,10.0,NNW,17.3,-,N/A,,Overcast,340,2011-11-18 13:52:00
7:52 AM,35.1,23.0,61,29.68,10.0,NNW,21.9,28.8,N/A,,Overcast,340,2011-11-18 14:52:00
8:52 AM,35.1,23.0,61,29.69,10.0,NNW,17.3,-,N/A,,Overcast,340,2011-11-18 15:52:00
9:52 AM,36.0,23.0,59,29.72,10.0,North,16.1,-,N/A,,Overcast,350,2011-11-18 16:52:00
10:52 AM,37.9,24.1,57,29.71,10.0,North,12.7,-,N/A,,Overcast,10,2011-11-18 17:52:00
11:52 AM,37.9,21.9,53,29.70,10.0,North,15.0,-,N/A,,Overcast,350,2011-11-18 18:52:00
12:52 PM,37.9,19.9,48,29.72,10.0,North,12.7,-,N/A,,Overcast,360,2011-11-18 19:52:00
1:52 PM,37.0,19.0,48,29.73,10.0,North,11.5,-,N/A,,Overcast,360,2011-11-18 20:52:00
2:52 PM,36.0,19.9,52,29.75,10.0,North,13.8,-,N/A,,Overcast,10,2011-11-18 21:52:00
3:52 PM,33.1,23.0,66,29.77,5.0,NNW,13.8,-,0.00,Snow,Light Snow,340,2011-11-18 22:52:00
4:06 PM,32.0,24.8,75,29.69,1.8,North,11.5,-,0.00,Snow,Light Snow,10,2011-11-18 23:06:00
4:19 PM,32.0,24.8,75,29.69,3.0,North,11.5,-,0.00,Snow,Light Snow,360,2011-11-18 23:19:00
4:34 PM,30.2,26.6,86,29.70,2.0,North,10.4,-,0.00,Snow,Light Snow,350,2011-11-18 23:34:00
4:48 PM,30.2,26.6,86,29.70,1.8,North,9.2,-,0.00,Snow,Light Snow,350,2011-11-18 23:48:00
4:52 PM,30.0,27.0,88,29.80,1.5,North,9.2,-,0.01,Snow,Light Snow,350,2011-11-18 23:52:00
5:00 PM,28.4,26.6,93,29.72,1.0,North,10.4,-,0.00,Snow,Light Snow,360,2011-11-19 00:00:00
5:31 PM,28.4,26.6,93,29.72,2.0,NNE,10.4,-,0.02,Snow,Light Snow,20,2011-11-19 00:31:00
5:52 PM,28.0,26.1,92,29.82,3.0,NNE,8.1,-,0.02,Snow,Light Snow,30,2011-11-19 00:52:00
6:24 PM,28.4,26.6,93,29.74,2.0,North,9.2,-,0.01,Snow,Light Snow,10,2011-11-19 01:24:00
6:33 PM,28.4,26.6,93,29.75,1.2,North,6.9,-,0.01,Snow,Light Snow,10,2011-11-19 01:33:00
6:52 PM,28.0,26.1,92,29.81,1.0,NNE,9.2,-,0.02,Snow,Light Snow,30,2011-11-19 01:52:00
7:04 PM,28.4,26.6,93,29.74,1.2,NNE,9.2,-,N/A,Snow,Light Snow,20,2011-11-19 02:04:00
7:24 PM,28.4,26.6,93,29.76,2.0,North,8.1,-,0.02,Snow,Light Snow,10,2011-11-19 02:24:00
7:32 PM,26.6,26.6,100,29.74,1.2,NNE,9.2,-,0.02,Snow,Light Snow,30,2011-11-19 02:32:00
7:52 PM,27.0,25.0,92,29.81,1.8,NE,10.4,-,0.03,Snow,Light Snow,40,2011-11-19 02:52:00
8:00 PM,26.6,24.8,93,29.72,2.0,NNE,10.4,-,0.00,Snow,Light Snow,30,2011-11-19 03:00:00
8:12 PM,26.6,24.8,93,29.71,1.8,NNE,16.1,-,0.00,Snow,Light Snow,30,2011-11-19 03:12:00
8:24 PM,26.6,24.8,93,29.70,1.8,NNE,17.3,21.9,0.00,Snow,Light Snow,30,2011-11-19 03:24:00
8:33 PM,26.6,24.8,93,29.70,2.5,NNE,15.0,-,0.00,Snow,Light Snow,20,2011-11-19 03:33:00
8:52 PM,25.0,23.0,92,29.83,2.0,NNE,17.3,23.0,0.01,Snow,Light Snow,20,2011-11-19 03:52:00
9:02 PM,24.8,21.2,86,29.75,3.0,North,18.4,-,0.00,Snow,Light Snow,10,2011-11-19 04:02:00
9:11 PM,23.0,21.2,93,29.72,1.8,NNE,20.7,-,0.00,Snow,Light Snow,20,2011-11-19 04:11:00
9:17 PM,23.0,19.4,86,29.74,1.0,North,18.4,-,0.00,Snow,Light Snow,10,2011-11-19 04:17:00
9:29 PM,21.2,19.4,93,29.74,0.8,NNE,15.0,-,0.00,Snow,Light Snow,20,2011-11-19 04:29:00
9:50 PM,21.2,19.4,93,29.78,1.2,North,11.5,-,0.02,Snow,Light Snow,10,2011-11-19 04:50:00
9:52 PM,21.0,19.0,92,29.87,1.2,North,15.0,-,0.02,Snow,Light Snow,10,2011-11-19 04:52:00
10:03 PM,21.2,19.4,93,29.76,0.5,NNE,15.0,-,0.01,Fog-Snow,Snow,20,2011-11-19 05:03:00
10:09 PM,21.2,19.4,93,29.78,0.2,North,10.4,-,0.01,Fog-Snow,Heavy Snow,360,2011-11-19 05:09:00
10:20 PM,21.2,19.4,93,29.78,0.5,North,10.4,-,0.03,Fog-Snow,Snow,350,2011-11-19 05:20:00
10:37 PM,19.4,17.6,93,29.78,0.2,NNW,11.5,-,0.04,Fog-Snow,Heavy Snow,340,2011-11-19 05:37:00
10:45 PM,19.4,17.6,93,29.75,0.5,North,16.1,-,0.05,Fog-Snow,Snow,10,2011-11-19 05:45:00
10:52 PM,19.9,18.0,92,29.85,0.5,North,11.5,-,0.05,Fog-Snow,Snow,10,2011-11-19 05:52:00
11:52 PM,19.0,16.0,88,29.85,0.8,NNW,12.7,-,0.04,Snow,Light Snow,340,2011-11-19 06:52:00
11:58 PM,19.4,15.8,86,29.75,1.0,NNW,12.7,-,0.00,Snow,Light Snow,340,2011-11-19 06:58:00